Hourly Data Report for January 24, 2013

BAGOTVILLE A
QUEBEC

48°20'00.000" N
71°00'00.000" W
159.10 m
7060400
71727
YBG

Download Data

Hourly Data (January 2013)
Hourly Data Report for January 24, 2013
TIME
LST
Temp Definition
°C
Dew Point Definition
°C
Rel Hum Definition
%
Precip. Amount Definition
mm

Wind Dir Definition
10's deg

Wind Spd Definition
km/h
Visibility Definition
km
Stn Press Definition
kPa
Hmdx Definition


Wind Chill Definition


Weather Definition


00:00 -23.7 -28.4 65   28 30 4.0 99.30   -37 Snow,Blowing Snow
01:00 -23.6 -28.3 65   29 33 9.7 99.27   -38 Snow
02:00 -23.6 -27.2 72   28 30 24.1 99.28   -37 Mostly Cloudy
03:00 -23.6 -27.2 72   29 30 24.1 99.26   -37 Mostly Cloudy
04:00 -23.9 -28.7 65   29 33 24.1 99.24   -38 Mainly Clear
05:00 -23.3 -26.8 73   30 30 24.1 99.25   -37 Mostly Cloudy
06:00 -23.3 -26.8 73   29 32 6.4 99.27   -37 Snow Showers
07:00 -24.4 -28.1 71   30 33 6.4 99.31   -39 Snow Showers
08:00 -24.0 -27.6 72   29 28 6.4 99.34   -37 Snow Showers
09:00 -23.7 -27.3 72   29 37 1.2 99.32   -39 Snow Showers,Blowing Snow
10:00 -23.2 -26.7 73   30 43 1.2 99.41   -39 Snow Showers,Blowing Snow
11:00 -22.6 -29.3 54   30 44 3.2 99.42   -38 Blowing Snow
12:00 -22.9 -28.5 60   30 37 9.7 99.45   -38 Blowing Snow
13:00 -23.1 -26.6 73   29 39 1.6 99.43   -38 Snow Showers,Blowing Snow
14:00 -22.3 -27.7 61   29 39 3.2 99.46   -37 Snow Showers,Blowing Snow
15:00 -22.1 -27.4 62   30 33 3.2 99.56   -36 Snow Showers,Blowing Snow
16:00 -22.0 -28.5 56   30 35 12.9 99.66   -36 Mostly Cloudy
17:00 -22.1 -27.4 62   29 37 9.7 99.71   -36 Blowing Snow
18:00 -21.9 -27.2 62   29 39 9.7 99.78   -37 Snow
19:00 -21.8 -26.0 69   30 35 6.4 99.90   -36 Snow
20:00 -21.7 -26.9 63   30 33 6.4 99.99   -35 Snow
21:00 -21.8 -27.0 63   30 35 6.4 100.00   -36 Snow
22:00 -21.9 -27.2 62   30 26 6.4 100.05   -34 Snow
23:00 -21.9 -27.2 62   30 32 6.4 100.03   -35 Snow

Notes on Data Quality.

Legend

  • E = Estimated
  • M = Missing
  • NA = Not Available*
  • [empty] = Indicates an unobserved value
Date modified: